Location: Skalnate Pleso
(49.1889°N, 20.2450°E)
Time: 03:20:15
(UTC+02:00)

COSMOS 2428 - Pass Details

Date: 21 February 2020
Orbit: 846 x 856 km, 70.9° (Epoch: 06 April)

Event Time Altitude Azimuth Distance (km) Brightness Sun altitude
Exits shadow 04:40:47 11° 325° (NW) 2,425 4.8 -19.9°
Maximum altitude 04:41:51 12° 336° (NNW) 2,389 4.9 -19.7°
Drops below altitude 10° 04:43:45 10° 356° (N) 2,501 5.2 -19.4°
Sets 04:48:16 0° 28° (NNE) 3,439 6.3 -18.6°
